Tracking 29892 objects as of 21-Nov-2024
HD Live streaming from Space Station
objects crossing your sky now

GOES 1 AKM

Track GOES 1 AKM now!


NORAD ID: 20962
Int'l Code: 1975-100F
Perigee: 34,189.6 km
Apogee: 36,479.7 km
Inclination: 3.8 °
Period: 1,412.7 minutes
Semi major axis: 41705 km
RCS: 0.3981 m2 (medium)
Launch date: October 16, 1975
Source: United States (US)
Launch site: AIR FORCE EASTERN TEST RANGE (AFETR)

Note: This is a ROCKET BODY
Your satellite tracking list
Your tracking list is empty




NASA's NSSDC Master Catalog

Two Line Element Set (TLE):
1 20962U 75100F   24324.71746027 -.00000208  00000-0  00000-0 0  9992
2 20962   3.7515 267.1674 0274560  67.1483 295.8826  1.01932025130296
Source of the keplerian elements: AFSPC